Orbital Elements at Epoch 2459000.5 (2020-May-31.0) TDB
Reference: JPL 14 (heliocentric ecliptic J2000)
Element | Value | Uncertainty (1-sigma) | Units |
e | .06713099474409034 | 4.7991e-08 | |
a | 3.048214150229408 | 2.3512e-08 | au |
q | 2.843584502131496 | 1.3855e-07 | au |
i | 2.535762011000517 | 4.9781e-06 | deg |
node | 316.4995429245157 | 9.8993e-05 | deg |
peri | 234.601065518358 | 0.00010468 | deg |
M | 106.4627909870096 | 3.3695e-05 | deg |
tp | 2458425.640138929377 (2018-Nov-03.14013893) | 0.00018221 | TDB |
period | 1943.867411954999 5.32 | 2.2491e-05 6.158e-08 | d yr |
n | .1851978163664663 | 2.1428e-09 | deg/d |
Q | 3.252843798327321 | 2.5091e-08 | au |
|
| | Orbit Determination Parameters
Additional Information
|